Location: The Saddle
(36.8333°N, 80.3417°W)
Time: 06:00:03
(UTC-04:00)

Tiros 1 - Pass Details

Date: 24 January 2022
Orbit: 630 x 663 km, 48.4° (Epoch: 29 May)

Event Time Altitude Azimuth Distance (km) Brightness Sun altitude
Exits shadow 06:41:46 12° 279° (W) 1,880 8.9 -9.7°
Maximum altitude 06:45:09 26° 227° (SW) 1,256 8.4 -9.1°
Drops below altitude 10° 06:49:01 10° 170° (S) 2,016 10.1 -8.4°
Sets 06:51:36 0° 158° (SSE) 2,915 11.2 -7.9°
